Flag for Sudan Weather past 2 weeks in Port Sudan, Sudan

Now
88 °F

Sunny.


Feels Like: 85 °F
Forecast: 71 / 88 °F
Wind: 16 mph from Northwest

Location: Jeddah King Abdul Aziz International Airport

Current Time: Apr 1, 2015 at 1:49:05 PM

Latest Report: Apr 1, 2015 at 1:00 PM


Visibility: 10 mi

Pressure: 29.86 "Hg

Humidity: 29%

Dew point: 52 °F

Location of Port SudanLocation

Historic Weather in Port Sudan — Graph

°F

Port Sudan temperature yesterday

Maximum temperature yesterday: 90 °F (at 12:00 PM)
Minimum temperature yesterday: 77 °F (at 4:00 AM)
Average temperature yesterday: 82 °F

Past Weeks' High & Low Weather Summary

 TemperatureHumidityPressure
High106 °F (Mar 29, 2:00 PM)74% (Mar 31, 4:00 AM)29.95 "Hg (Mar 31, 4:00 AM)
Low70 °F (Mar 21, 7:00 AM)13% (Mar 29, 4:00 PM)29.65 "Hg (Mar 29, 3:00 PM)
Average83 °F50%29.82 "Hg
* Reported Mar 17 12:00 Noon — Apr 1 12:00 Noon, Port Sudan, Weather by CustomWeather, © 2015

Note: Actual official high and low records may vary slightly from our data, if they occured in-between our weather recording intervals... More about our weather records

Advertising

Port Sudan weather history for previous 24 hours

 ConditionsComfort  
Time TempWeatherWind HumidityBarometerVisibility
12:00 PM
Wed, Apr 1
88 °FSunny.16 mph25%29.89 "Hg10 mi
11:00 AM86 °FSunny.14 mph35%29.92 "Hg10 mi
10:00 AM84 °FSunny.16 mph43%29.92 "Hg10 mi
9:00 AM81 °FSunny.14 mph54%29.89 "Hg10 mi
8:00 AM77 °FSunny.12 mph61%29.89 "Hg10 mi
7:00 AM77 °FSunny.8 mph65%29.86 "Hg10 mi
6:00 AM73 °FClear.8 mph69%29.83 "Hg10 mi
5:00 AM75 °FClear.6 mph65%29.83 "Hg10 mi
4:00 AM75 °FClear.7 mph65%29.80 "Hg10 mi
3:00 AM75 °FClear.9 mph69%29.80 "Hg10 mi
2:00 AM77 °FClear.8 mph65%29.83 "Hg10 mi
1:00 AM77 °FClear.8 mph65%29.86 "Hg10 mi
12:00 AM77 °FClear.7 mph65%29.86 "Hg10 mi
11:00 PM
Tue, Mar 31
79 °FClear.6 mph65%29.86 "Hg10 mi
10:00 PM79 °FClear.7 mph65%29.86 "Hg10 mi
9:00 PM79 °FClear.9 mph65%29.86 "Hg10 mi
8:00 PM81 °FClear.12 mph58%29.83 "Hg10 mi
7:00 PM82 °FClear.16 mph55%29.83 "Hg10 mi
6:00 PM84 °FSunny.14 mph48%29.83 "Hg10 mi
5:00 PM86 °FSunny.18 mph43%29.80 "Hg10 mi
4:00 PM88 °FSunny.21 mph40%29.80 "Hg10 mi
3:00 PM88 °FSunny.21 mph38%29.80 "Hg10 mi
2:00 PM88 °FSunny.14 mph35%29.83 "Hg10 mi
1:00 PM90 °FSunny.16 mph31%29.83 "Hg10 mi
Weather by CustomWeather, © 2015

See weather overviewHow to use our weather pages